Starlink 32489

operational
NORAD ID: 61893 Int'l Des: 2024-204 Owner: SPXS Country: US Constellation: starlink
LEOCIRCULAR

Starlink 32489について

説明を読み込み中...

リアルタイム位置

3D地球を読み込み中...

次回通過

高度履歴

Altitude vs Time

uPlot chart will show altitude changes over time

軌道要素

1 61893U 24204V 25258.20688108 .00000857 00000-0 41066-4 0 9995
2 61893 53.1561 221.9430 0001324 92.0787 268.0366 15.30199850 48222
Epoch: Sep 15, 2025 • Age: 10 hours

現在のステータス

高度 477.7 km
速度 7.63 km/s
衛星直下点 37.87°N, 41.87°E
打ち上げ日 Nov 9, 2024
運用期間 0.8 years
タイプ internet

技術仕様

分類 Payload
質量 730.00 kg
乾燥質量 700.00 kg
総質量 730.00 kg
長さ 0.30 m
直径 4.10 m
スパン 29.00 m
形状 Box + pan
製造者 SPXS
バスタイプ Starlink V2M
フェーズステータス In Orbit
所有者/国 SPXS/US

大規模コンステレーション

Loading constellations...